Location: Unspecified
(0.0000°N, 0.0000°E)
Time: 05:24:05
(UTC+00:00)

M3MSAT - Visible Passes

Search period start: 19 April 2024 00:00
Search period end: 29 April 2024 00:00
Orbit: 454 x 464 km, 97.1° (Epoch: 18 April)

Date Brightness Start Highest point End Pass type
(mag) Time Alt. Az. Time Alt. Az. Time Alt. Az.
19 Apr ? 19:01:14 27° SE 19:02:38 42° E 19:05:54 10° N visible
20 Apr ? 18:29:09 10° ESE 18:30:34 12° E 18:31:58 10° NE visible
20 Apr ? 20:02:37 14° WSW 20:03:15 15° W 20:05:14 10° WNW visible
21 Apr ? 19:30:08 37° SSW 19:31:09 52° W 19:34:30 10° NNW visible
22 Apr ? 18:57:37 25° SE 18:59:00 36° E 19:02:10 10° N visible
23 Apr ? 18:26:05 10° E 18:26:49 11° E 18:27:33 10° ENE visible
23 Apr ? 19:58:53 16° WSW 19:59:30 17° W 20:01:47 10° WNW visible
24 Apr ? 19:26:17 40° SSW 19:27:17 62° W 19:30:41 10° NNW visible
25 Apr ? 18:53:39 23° ESE 18:55:01 31° E 18:58:06 10° NNE visible
26 Apr ? 19:54:47 19° WSW 19:55:24 19° W 19:57:56 10° NW visible
27 Apr ? 19:22:04 43° S 19:23:04 75° W 19:26:30 10° NNW visible
28 Apr ? 18:49:18 20° ESE 18:50:41 26° E 18:53:38 10° NNE visible
